This demonstration page uses our WeatherBlox Daily Observations layout. Learn more.

Left ArrowRight Arrow

39.51506, -84.39828

Hourly Observations for March 2, 2019

Temp ( °F °C ) Dew Point ( °F °C ) Humidity (%) Winds ( mph kmh ) Pressure ( in mb ) Visibility ( mi km ) Precip ( " mm )
12:15 am 00:15 Cloudy 36 2.1 24 -4.2 63 63 N 6 9 30.13 1020 10 16 0.00 0.00
12:35 am 00:35 Cloudy 35 1.9 25 -4 65 65 N 3 6 30.14 1021 10 16 0.00 0.00
12:55 am 00:55 Cloudy 35 1.6 25 -4.1 66 66 N 3 6 30.14 1021 10 16 0.00 0.00
1:15 am 01:15 Cloudy 35 1.5 25 -3.8 68 68 N 5 7 30.14 1021 10 16 0.00 0.00
1:35 am 01:35 Cloudy 35 1.4 25 -3.8 69 69 N 5 7 30.14 1021 10 16 0.00 0.00
1:55 am 01:55 Cloudy 34 1.2 26 -3.3 72 72 NNW 3 6 30.15 1021 10 16 0.00 0.00
2:15 am 02:15 Cloudy 34 1.1 26 -3.5 72 72 NNW 3 6 30.16 1021 10 16 0.00 0.00
2:35 am 02:35 Cloudy 34 1 25 -3.9 70 70 NNW 3 6 30.16 1021 10 16 0.00 0.00
2:55 am 02:55 Cloudy 34 0.9 25 -3.8 71 71 NE 3 6 30.15 1021 10 16 0.00 0.00
3:15 am 03:15 Cloudy 34 0.9 25 -4 70 70 Calm 30.15 1021 10 16 0.00 0.00
3:35 am 03:35 Cloudy 34 0.9 25 -3.7 72 72 Calm 30.15 1021 10 16 0.00 0.00
3:55 am 03:55 Cloudy 33 0.8 25 -4 71 71 Calm 30.14 1021 10 16 0.00 0.00
4:15 am 04:15 Cloudy 33 0.8 25 -3.9 71 71 Calm 30.14 1021 10 16 0.00 0.00
4:35 am 04:35 Cloudy 33 0.8 25 -3.8 72 72 Calm 30.13 1020 10 16 0.00 0.00
4:55 am 04:55 Cloudy 33 0.8 26 -3.4 74 74 Calm 30.14 1021 10 16 0.00 0.00
5:15 am 05:15 Cloudy 33 0.8 27 -3 76 76 Calm 30.14 1021 10 16 0.00 0.00
5:35 am 05:35 Cloudy 33 0.8 27 -2.8 77 77 Calm 30.14 1021 10 16 0.00 0.00
5:55 am 05:55 Cloudy 34 0.9 27 -2.9 76 76 Calm 30.14 1021 10 16 0.00 0.00
6:15 am 06:15 Cloudy 34 1 27 -2.9 75 75 SW 3 6 30.15 1021 10 16 0.00 0.00
6:35 am 06:35 Cloudy 34 1.1 27 -3 74 74 SW 5 7 30.15 1021 10 16 0.00 0.00
6:55 am 06:55 Cloudy 34 1.1 26 -3.1 74 74 SW 5 7 30.16 1021 10 16 0.00 0.00
7:15 am 07:15 Cloudy 34 1.2 27 -3 74 74 SW 5 7 30.16 1021 10 16 0.00 0.00
7:35 am 07:35 Cloudy 34 1.3 27 -2.9 74 74 W 3 6 30.18 1022 10 16 0.00 0.00
7:55 am 07:55 Cloudy 35 1.5 27 -2.9 73 73 SW 3 6 30.18 1022 10 16 0.00 0.00
8:15 am 08:15 Cloudy 35 1.7 27 -2.8 72 72 Calm 30.19 1022 10 16 0.00 0.00
8:35 am 08:35 Cloudy 35 1.8 28 -2.4 74 74 SW 5 7 30.19 1022 10 16 0.00 0.00
8:55 am 08:55 Cloudy 36 2 27 -2.6 72 72 SSW 3 6 30.19 1022 10 16 0.00 0.00
9:15 am 09:15 Cloudy 36 2.1 28 -2.5 72 72 SW 6 9 30.20 1023 10 16 0.00 0.00
9:35 am 09:35 Cloudy 36 2.3 28 -2.4 71 71 SW 5 7 30.21 1023 10 16 0.00 0.00
9:55 am 09:55 Cloudy 37 2.6 28 -2.2 71 71 SW 6 9 30.21 1023 10 16 0.00 0.00
10:15 am 10:15 Cloudy 38 3.1 29 -1.8 71 71 SW 7 11 30.22 1023 10 16 0.00 0.00
10:35 am 10:35 Cloudy 39 3.7 29 -1.4 70 70 W 7 11 30.22 1023 10 16 0.00 0.00
10:55 am 10:55 Cloudy 40 4.5 30 -1.1 67 67 W 10 17 30.21 1023 10 16 0.00 0.00
11:15 am 11:15 Cloudy 40 4.7 29 -1.6 64 64 W 8 13 30.20 1023 10 16 0.00 0.00
11:35 am 11:35 Cloudy 42 5.4 29 -1.4 62 62 W 9 15 30.19 1022 10 16 0.00 0.00
11:55 am 11:55 Cloudy 42 5.3 29 -1.6 61 61 W 9 15 30.18 1022 10 16 0.00 0.00
12:55 pm 12:55 Cloudy 41 5.2 28 -2.2 59 59 W 10 17 30.19 1022 10 16 0.00 0.00
1:15 pm 13:15 Cloudy 41 5.2 29 -1.7 61 61 WNW 9 15 30.20 1023 10 16 0.00 0.00
1:35 pm 13:35 Cloudy 42 5.4 29 -1.4 62 62 W 9 15 30.18 1022 10 16 0.00 0.00
1:55 pm 13:55 Cloudy 42 5.7 30 -1.3 61 61 NW 9 15 30.17 1022 10 16 0.00 0.00
2:15 pm 14:15 Cloudy 42 5.8 29 -1.5 60 60 WNW 13 20 30.17 1022 10 16 0.00 0.00
2:35 pm 14:35 Cloudy 43 6 29 -1.8 58 58 WSW 12 19 30.17 1022 10 16 0.00 0.00
2:55 pm 14:55 Cloudy 43 5.9 29 -1.9 58 58 W 8 13 30.17 1022 10 16 0.00 0.00
3:15 pm 15:15 Cloudy 43 5.9 28 -2.2 56 56 WNW 8 13 30.18 1022 10 16 0.00 0.00
3:35 pm 15:35 Cloudy 42 5.8 29 -1.9 58 58 W 8 13 30.19 1022 10 16 0.00 0.00
3:55 pm 15:55 Cloudy 42 5.7 28 -2.1 58 58 WNW 10 17 30.19 1022 10 16 0.00 0.00
4:15 pm 16:15 Cloudy 42 5.4 29 -1.5 61 61 WNW 14 22 30.20 1023 10 16 0.00 0.00
4:35 pm 16:35 Cloudy 41 5 30 -1.3 64 64 NNW 10 17 30.20 1023 10 16 0.00 0.00
4:55 pm 16:55 Cloudy 40 4.6 30 -1.2 66 66 NNW 9 15 30.21 1023 10 16 0.00 0.00
5:15 pm 17:15 Cloudy 40 4.2 31 -0.8 70 70 N 7 11 30.22 1024 10 16 0.00 0.00
5:35 pm 17:35 Cloudy 39 4 30 -0.9 71 71 N 8 13 30.21 1023 7 11 0.00 0.00
5:55 pm 17:55 Cloudy 39 3.8 29 -1.6 68 68 NNW 8 13 30.23 1024 10 16 0.00 0.00
6:15 pm 18:15 Cloudy 38 3.6 29 -1.6 69 69 N 8 13 30.23 1024 10 16 0.00 0.00
6:35 pm 18:35 Cloudy 38 3.4 29 -1.8 69 69 N 6 9 30.23 1024 7 11 0.00 0.00
6:55 pm 18:55 Cloudy 38 3.3 29 -1.8 70 70 N 5 7 30.24 1024 10 16 0.00 0.00
7:15 pm 19:15 Cloudy 38 3.2 29 -1.7 71 71 N 3 6 30.24 1024 10 16 0.00 0.00
7:35 pm 19:35 Cloudy 38 3.1 29 -1.7 71 71 N 5 7 30.24 1024 10 16 0.00 0.00
7:55 pm 19:55 Cloudy 37 3 28 -2.4 68 68 N 6 9 30.24 1024 10 16 0.00 0.00
8:15 pm 20:15 Cloudy 37 2.8 27 -2.7 67 67 NNE 7 11 30.23 1024 10 16 0.00 0.00
8:35 pm 20:35 Cloudy 37 2.7 27 -2.6 68 68 NNE 5 7 30.22 1023 10 16 0.00 0.00
8:55 pm 20:55 Cloudy 37 2.6 27 -2.6 69 69 NNE 7 11 30.21 1023 10 16 0.00 0.00
9:15 pm 21:15 Cloudy 37 2.5 27 -2.7 69 69 NNE 5 7 30.22 1023 10 16 0.00 0.00
9:35 pm 21:35 Cloudy 36 2.4 27 -2.6 70 70 N 5 7 30.23 1024 10 16 0.00 0.00
9:55 pm 21:55 Cloudy 36 2.3 28 -2.5 71 71 N 5 7 30.22 1023 10 16 0.00 0.00
10:15 pm 22:15 Cloudy 36 2.1 27 -2.7 71 71 N 9 15 30.22 1023 10 16 0.00 0.00
10:35 pm 22:35 Cloudy 35 1.8 27 -2.6 73 73 NNE 6 9 30.22 1023 10 16 0.00 0.00
10:55 pm 22:55 Cloudy 35 1.7 28 -2.5 74 74 NNE 5 7 30.22 1023 7 11 0.00 0.00
11:15 pm 23:15 Cloudy 35 1.6 28 -2.5 74 74 N 3 6 30.22 1023 7 11 0.00 0.00
11:35 pm 23:35 Cloudy 35 1.4 27 -2.6 75 75 NNE 5 7 30.22 1023 7 11 0.00 0.00
11:55 pm 23:55 Cloudy 35 1.4 27 -2.8 74 74 NNE 5 7 30.22 1023 7 11 0.00 0.00

Powered by AerisWeather